Regional Weather Roundup
Issued by NWS

Home | Current Version | Previous Version | Text Only | Print | Product List | Glossary On
Versions: 1 2 3 4 5 6 7 8 9 10 11 12 13 14 15 16 17 18 19 20 21 22 23 24 25 26 27 28 29 30 31 32 33 34 35 36 37 38 39 40 41 42 43 44 45 46 47 48 49 50
000
ASUS43 KLSX 191810
RWRMO

WEATHER SUMMARY FOR MISSOURI
NATIONAL WEATHER SERVICE SPRINGFIELD MO
100 PM CDT THU APR 19 2018

NOTE: "FAIR" INDICATES FEW OR NO CLOUDS BELOW 12,000 FEET WITH NO
       SIGNIFICANT WEATHER AND/OR OBSTRUCTIONS TO VISIBILITY.
       CURRENT SKY AND/OR WEATHER CONDITIONS ARE NOT AVAILABLE FOR
       CHILLICOTHE AND FARMINGTON.

MOZ001>031-035>038-043-044-053-054-191900-
...NORTHERN AND WESTERN MISSOURI...

CITY           SKY/WX    TMP DP  RH WIND       PRES   REMARKS
KANSAS CTY INT MOSUNNY   53  30  41 N7        30.45F
6HR MIN TEMP:  29; 6HR MAX TEMP:  53;

KANSAS C DTWN  SUNNY     52  30  43 N10G17    30.45F
6HR MIN TEMP:  34; 6HR MAX TEMP:  53;

LEE`S SUMMIT   MOSUNNY   52  32  46 NE15G21   30.45F
6HR MIN TEMP:  32; 6HR MAX TEMP:  52;

ST JOSEPH      SUNNY     55  31  39 N15G21    30.46F
6HR MIN TEMP:  24; 6HR MAX TEMP:  55;

CHILLICOTHE      N/A     53  33  46 VRB6G18   30.47R
6HR MIN TEMP:  31; 6HR MAX TEMP:  53;

KIRKSVILLE     SUNNY     51  31  46 VRB6G16   30.45S
6HR MIN TEMP:  29; 6HR MAX TEMP:  51;


$$
MOZ066>068-077>081-088>096-101>105-191900-
...SOUTHWEST MISSOURI...

CITY           SKY/WX    TMP DP  RH WIND       PRES   REMARKS
SPRINGFIELD    SUNNY     50  30  46 NE9G18    30.40F
6HR MIN TEMP:  39; 6HR MAX TEMP:  51;

JOPLIN         SUNNY     50  30  46 NE14      30.44F
6HR MIN TEMP:  35; 6HR MAX TEMP:  51;

BRANSON        MOSUNNY   48  27  43 N9G17     30.40S

$$
MOZ032>034-039>042-045>050-055>058-069>072-191900-
...CENTRAL MISSOURI...

CITY           SKY/WX    TMP DP  RH WIND       PRES   REMARKS
COLUMBIA       MOSUNNY   50  29  44 N12G22    30.43S
6HR MIN TEMP:  31; 6HR MAX TEMP:  51;

JEFFERSON CITY MOSUNNY   50  29  44 VRB5      30.44S
6HR MIN TEMP:  33; 6HR MAX TEMP:  50;

ROLLA          MOSUNNY   47  29  49 N12       30.41S
6HR MIN TEMP:  31; 6HR MAX TEMP:  48;

SEDALIA        MOSUNNY   51  31  46 NE7       30.45F
6HR MIN TEMP:  33; 6HR MAX TEMP:  52;

WHITEMAN AFB   MOSUNNY   50  30  46 NW12      30.41S
WARRENSBURG    MOSUNNY   52  30  43 N7G17     30.45F
OSAGE BEACH    PTSUNNY   48  28  46 N9G20     30.43F

$$
MOZ051-052-059>065-191900-
...EAST CENTRAL MISSOURI...

CITY           SKY/WX    TMP DP  RH WIND       PRES   REMARKS
ST LOUIS INTL  PTSUNNY   48  33  56 N13G18    30.42S
6HR MIN TEMP:  36; 6HR MAX TEMP:  48;

SPIRIT OF STL  PTSUNNY   49  32  52 N8        30.42S
6HR MIN TEMP:  37; 6HR MAX TEMP:  49;

ST CHARLES     MOSUNNY   49  33  54 NE9G17    30.42S
6HR MIN TEMP:  37; 6HR MAX TEMP:  50;


$$
MOZ072>076-082>087-097>100-106>115-191900-
...SOUTH CENTRAL AND SOUTHEAST MISSOURI...

CITY           SKY/WX    TMP DP  RH WIND       PRES   REMARKS
CAPE GIRARDEAU CLOUDY    48  30  49 N12       30.38S
6HR MIN TEMP:  40; 6HR MAX TEMP:  49;

FARMINGTON       N/A     47  31  53 NE13      30.39S
6HR MIN TEMP:  35; 6HR MAX TEMP:  48;

POPLAR BLUFF   FAIR      50  32  50 N12G21    30.38S
6HR MIN TEMP:  42; 6HR MAX TEMP:  50;

WEST PLAINS    SUNNY     49  29  46 N9G17     30.39S
6HR MIN TEMP:  38; 6HR MAX TEMP:  50;


$$



USA.gov is the U.S. government's official web portal to all federal, state and local government web resources and services.